Stations météo

réclame
Mon MeteoGroup
D15-FA-1, Pays-Bas (6201): Température de l'air & dewpoint: 18.10.2018 00:00:00 - 24.10.2018 00:00:00 (CEST)D15-FA-1, Pays-Bas (6201): Vitesse du vent & gusts: 18.10.2018 00:00:00 - 24.10.2018 00:00:00 (CEST)D15-FA-1, Pays-Bas (6201): Direction du vent: 18.10.2018 00:00:00 - 24.10.2018 00:00:00 (CEST)D15-FA-1, Pays-Bas (6201): reduced air pressure: 18.10.2018 00:00:00 - 24.10.2018 00:00:00 (CEST)D15-FA-1, Pays-Bas (6201): visibility: 18.10.2018 00:00:00 - 24.10.2018 00:00:00 (CEST)
Date & Time tt [°C] td [°C] ff [km/h] ff [knt] fx [km/h] fx [knt] dd ppp [hPa] vv [km]
24.10.2018 00:00:00 13,7 11,4 59 32 61 33 WNW 1020,1 10
23.10.2018 23:00:00 13,6 11,3 63 34 68 37 WNW 1019,8 10
23.10.2018 22:00:00 13,4 11,1 67 36 72 39 WNW 1019,5 10
23.10.2018 21:00:00 13,7 11,2 57 31 65 35 WNW 1020,1 10
23.10.2018 20:00:00 13,6 11,1 55 30 61 33 W 1020,1 10
23.10.2018 19:00:00 13,4 10,9 50 27 61 33 WNW 1020,1 10
23.10.2018 18:00:00 13,6 10,6 57 31 65 35 WNW 1019,6 10
23.10.2018 17:00:00 13,6 10,4 65 35 68 37 WNW 1019,7 10
23.10.2018 16:00:00 13,6 10,0 59 32 68 37 WNW 1019,6 10
23.10.2018 15:00:00 13,4 9,6 63 34 65 35 WNW 1019,5 9
23.10.2018 14:00:00 13,2 9,2 65 35 72 39 WNW 1019,9 10
23.10.2018 13:00:00 13,2 9,0 63 34 72 39 NW 1020,0 10
23.10.2018 12:00:00 13,2 9,1 65 35 76 41 WNW 1020,1 10
23.10.2018 11:00:00 12,8 8,9 65 35 79 43 WNW 1019,9 10
23.10.2018 10:00:00 12,6 9,2 72 39 79 43 W 1020,3 8
23.10.2018 09:00:00 12,4 9,2 74 40 79 43 W 1020,3 10
23.10.2018 08:00:00 12,2 9,1 76 41 76 41 W 1020,6 9
23.10.2018 07:00:00 12,4 8,6 68 37 76 41 W 1021,2 9
23.10.2018 06:00:00 12,3 7,7 72 39 76 41 W 1021,9 10
23.10.2018 05:00:00 12,3 8,1 74 40 76 41 W 1022,8 10
23.10.2018 04:00:00 12,2 7,7 67 36 72 39 W 1024,0 10
23.10.2018 03:00:00 12,1 7,8 67 36 72 39 W 1025,2 10
23.10.2018 02:00:00 12,1 7,4 68 37 72 39 W 1026,1 10
23.10.2018 01:00:00 12,0 7,6 55 30 68 37 - 1027,1 10
23.10.2018 00:00:00 12,0 7,7 61 33 65 35 W 1028,2 10
22.10.2018 23:00:00 12,1 7,7 57 31 68 37 - 1029,3 10
22.10.2018 22:00:00 12,4 6,9 50 27 50 27 W 1029,3 10
22.10.2018 21:00:00 12,2 6,3 39 21 50 27 W 1031,2 10
22.10.2018 20:00:00 11,8 5,3 46 25 47 25 W 1031,8 10
22.10.2018 19:00:00 11,5 6,7 41 22 43 23 W 1032,3 10
22.10.2018 18:00:00 11,4 5,1 34 18 36 19 W 1032,5 10
22.10.2018 17:00:00 11,9 5,2 37 20 40 21 WNW 1033,4 10
22.10.2018 16:00:00 11,8 3,9 35 19 40 21 WNW 1033,7 10
22.10.2018 15:00:00 11,7 3,6 39 21 40 21 NW 1034,5 10
22.10.2018 14:00:00 11,6 3,3 41 22 40 21 NW 1034,6 10
22.10.2018 13:00:00 11,4 3,3 37 20 40 21 NW 1034,6 10
22.10.2018 12:00:00 11,3 3,9 37 20 43 23 NNW 1034,3 10
22.10.2018 11:00:00 11,3 4,2 41 22 47 25 NW 1034,1 10
22.10.2018 10:00:00 11,3 3,2 44 24 50 27 NW 1033,3 10
22.10.2018 09:00:00 11,2 3,8 44 24 47 25 NNW 1032,8 10
22.10.2018 08:00:00 11,2 4,2 37 20 47 25 NW 1031,9 10
22.10.2018 07:00:00 11,4 4,6 42 23 43 23 NNW 1031,3 10
22.10.2018 06:00:00 11,5 5,4 44 24 43 23 NNW 1030,7 10
22.10.2018 05:00:00 11,7 6,0 44 24 43 23 NNW 1030,1 10
22.10.2018 04:00:00 11,9 6,4 46 25 47 25 NNW 1029,5 10
22.10.2018 03:00:00 12,1 6,5 46 25 47 25 NW 1029,1 10
22.10.2018 02:00:00 12,4 7,4 46 25 47 25 NNW 1028,8 10
22.10.2018 01:00:00 12,6 8,2 48 26 47 25 NNW 1028,0 10
22.10.2018 00:00:00 12,6 8,7 46 25 47 25 NW 1027,4 10
21.10.2018 23:00:00 12,9 8,8 46 25 47 25 NNW 1026,9 10
21.10.2018 22:00:00 13,3 10,3 46 25 50 27 NNW 1026,1 10
21.10.2018 21:00:00 13,8 11,3 39 21 43 23 NW 1025,4 10
21.10.2018 20:00:00 14,1 13,0 29 16 36 19 W 1024,6 10
21.10.2018 19:00:00 13,7 12,9 29 16 32 18 W 1024,0 10
21.10.2018 18:00:00 13,6 12,5 28 15 36 19 W 1023,6 10
21.10.2018 17:00:00 13,7 12,2 26 14 29 16 W 1023,3 10
21.10.2018 16:00:00 13,8 11,8 26 14 29 16 SW 1023,3 10
21.10.2018 15:00:00 13,8 12,0 28 15 36 19 SW 1023,3 10
21.10.2018 14:00:00 13,9 12,2 22 12 25 14 SW 1023,9 10
21.10.2018 13:00:00 13,9 12,0 21 11 25 14 WSW 1024,2 10
21.10.2018 12:00:00 13,6 11,8 22 12 25 14 WSW 1024,4 10
21.10.2018 11:00:00 13,8 11,7 22 12 22 12 WSW 1024,9 10
21.10.2018 10:00:00 13,9 11,9 22 12 22 12 SW 1025,1 10
21.10.2018 09:00:00 13,7 12,2 22 12 22 12 SW 1025,0 10
21.10.2018 08:00:00 13,9 12,2 22 12 22 12 SW 1024,9 10
21.10.2018 07:00:00 13,9 12,3 21 11 22 12 SW 1025,0 10
21.10.2018 06:00:00 14,1 12,4 21 11 22 12 SW 1025,4 10
21.10.2018 05:00:00 14,2 12,1 18 10 18 10 SW 1025,9 10
21.10.2018 04:00:00 14,2 11,6 21 11 22 12 WSW 1026,2 10
21.10.2018 03:00:00 14,2 12,2 21 11 18 10 WSW 1026,6 10
21.10.2018 02:00:00 14,2 12,2 21 11 22 12 WSW 1026,8 10
21.10.2018 01:00:00 14,2 11,9 24 13 22 12 WSW 1027,4 10
21.10.2018 00:00:00 14,2 11,8 24 13 25 14 WSW 1027,6 10
20.10.2018 23:00:00 14,2 12,0 24 13 25 14 SW 1027,9 10
20.10.2018 22:00:00 13,9 12,1 22 12 25 14 SW 1028,2 10
20.10.2018 21:00:00 13,7 11,7 24 13 22 12 SW 1028,4 10
20.10.2018 20:00:00 13,4 11,4 22 12 22 12 SW 1028,0 10
20.10.2018 19:00:00 13,4 11,4 24 13 22 12 SW 1028,2 10
20.10.2018 18:00:00 13,4 11,3 21 11 22 12 SW 1028,2 10
20.10.2018 17:00:00 13,6 11,1 22 12 22 12 WSW 1028,2 10
20.10.2018 16:00:00 13,6 11,2 21 11 29 16 WSW 1028,8 10
20.10.2018 15:00:00 13,6 11,2 26 14 25 14 WSW 1028,9 10
20.10.2018 14:00:00 13,5 10,8 22 12 22 12 SW 1029,3 10
20.10.2018 13:00:00 13,5 10,9 16 9 18 10 WSW 1029,7 10
20.10.2018 12:00:00 13,2 10,5 16 9 18 10 W 1029,8 10
20.10.2018 11:00:00 13,0 10,1 18 10 25 14 W 1029,8 10
20.10.2018 10:00:00 13,1 10,3 18 10 22 12 W 1029,5 10
20.10.2018 09:00:00 12,9 10,5 22 12 25 14 W 1028,8 10
20.10.2018 08:00:00 12,9 10,3 22 12 25 14 W 1028,3 10
20.10.2018 07:00:00 12,8 10,3 5 3 11 6 WSW 1027,7 10
20.10.2018 06:00:00 13,0 10,7 16 9 22 12 WNW 1027,8 8
20.10.2018 05:00:00 13,2 10,3 26 14 25 14 NW 1027,6 10
20.10.2018 04:00:00 13,3 10,7 24 13 29 16 WNW 1027,5 10
20.10.2018 03:00:00 13,4 10,5 26 14 29 16 W 1027,1 10
20.10.2018 02:00:00 13,3 10,6 21 11 22 12 W 1026,4 10
20.10.2018 01:00:00 13,3 10,2 22 12 25 14 W 1026,4 10
20.10.2018 00:00:00 13,1 9,8 24 13 29 16 W 1026,6 10
19.10.2018 23:00:00 12,9 9,5 22 12 29 16 - 1026,7 10
19.10.2018 22:00:00 12,7 8,7 28 15 29 16 W 1025,9 10
19.10.2018 21:00:00 12,5 8,1 24 13 32 18 W 1025,7 10
19.10.2018 20:00:00 12,4 7,8 28 15 32 18 W 1026,0 10
19.10.2018 19:00:00 12,3 8,1 22 12 25 14 WSW 1025,1 10
19.10.2018 18:00:00 12,4 8,7 24 13 25 14 W 1024,7 10
19.10.2018 17:00:00 12,7 9,4 22 12 25 14 W 1024,7 10
19.10.2018 16:00:00 12,7 9,9 21 11 25 14 W 1024,8 10
19.10.2018 15:00:00 13,2 9,9 34 18 36 19 SSW 1024,7 10
19.10.2018 14:00:00 14,0 8,7 28 15 32 18 SSW 1025,2 10
19.10.2018 13:00:00 13,6 7,2 22 12 22 12 SSE 1025,8 10
19.10.2018 12:00:00 13,6 5,9 22 12 29 16 SSE 1026,0 10
19.10.2018 11:00:00 13,1 6,1 22 12 25 14 SSE 1026,1 10
19.10.2018 10:00:00 13,2 5,8 21 11 22 12 SSE 1025,8 9
19.10.2018 09:00:00 12,8 5,0 13 7 18 10 SE 1025,8 5
19.10.2018 08:00:00 12,7 5,1 8 4 14 8 S 1025,8 10
19.10.2018 07:00:00 12,5 3,9 5 3 18 10 SW 1026,3 10
19.10.2018 06:00:00 12,5 4,7 5 3 11 6 SSW 1026,5 10
19.10.2018 05:00:00 12,2 5,8 9 5 14 8 SE 1026,9 6
19.10.2018 04:00:00 12,2 5,8 11 6 18 10 SE 1027,2 5
19.10.2018 03:00:00 11,9 5,7 15 8 18 10 ESE 1027,4 10
19.10.2018 02:00:00 11,9 5,7 15 8 18 10 E 1027,5 10
19.10.2018 01:00:00 11,9 6,0 9 5 14 8 E 1028,0 10
19.10.2018 00:00:00 11,9 6,3 13 7 14 8 E 1028,1 10
18.10.2018 23:00:00 11,9 6,8 13 7 14 8 E 1028,1 10
18.10.2018 22:00:00 11,9 6,7 11 6 14 8 E 1028,2 10
18.10.2018 21:00:00 12,0 6,7 13 7 14 8 ENE 1028,2 10
18.10.2018 20:00:00 12,2 6,2 13 7 18 10 ENE 1028,1 10
18.10.2018 19:00:00 12,2 6,2 16 9 22 12 - 1027,9 10
18.10.2018 18:00:00 12,3 6,5 16 9 22 12 - 1027,9 10
18.10.2018 17:00:00 12,5 6,5 18 10 22 12 - 1027,9 10
18.10.2018 16:00:00 12,5 7,0 14 8 22 12 NE 1027,9 37
18.10.2018 15:00:00 12,6 6,6 21 11 25 14 ENE 1027,8 10
18.10.2018 14:00:00 12,6 7,8 29 16 32 18 - 1028,0 10
18.10.2018 13:00:00 12,7 8,1 24 13 25 14 - 1027,9 10
18.10.2018 12:00:00 12,8 8,5 22 12 29 16 - 1027,8 10
18.10.2018 11:00:00 12,6 8,5 24 13 25 14 NNE 1027,5 10
18.10.2018 10:00:00 12,5 8,5 22 12 25 14 N 1027,2 10
18.10.2018 09:00:00 12,2 8,4 29 16 32 18 N 1026,5 10
18.10.2018 08:00:00 12,1 7,6 26 14 29 16 N 1025,8 10
18.10.2018 07:00:00 12,3 8,3 28 15 29 16 NNW 1025,3 10
18.10.2018 06:00:00 12,4 8,4 28 15 29 16 NNW 1025,2 10
18.10.2018 05:00:00 12,5 8,1 24 13 29 16 NW 1024,9 10
18.10.2018 04:00:00 12,6 7,9 26 14 29 16 NNW 1024,6 10
18.10.2018 03:00:00 12,6 8,2 31 17 32 18 NNW 1024,7 10
18.10.2018 02:00:00 12,8 8,9 31 17 32 18 NNW 1024,6 10
18.10.2018 01:00:00 12,8 9,2 28 15 29 16 N 1024,1 10
18.10.2018 00:00:00 12,8 9,9 24 13 25 14 N 1023,5 10

tt = Température de l'air
td = dewpoint
ff = Vitesse du vent
fx = gusts
dd = Direction du vent
ppp = reduced air pressure
vv = visibility

stations d'obs. à proximité